Regional Weather Roundup
Issued by NWS

Home | Current Version | Previous Version | Graphics & Text | Print | Product List | Glossary On
Versions: 1 2 3 4 5 6 7 8 9 10 11 12 13 14 15 16 17 18 19 20 21 22 23 24 25 26 27 28 29 30 31 32 33 34 35 36 37 38 39 40 41 42 43 44 45 46 47 48 49 50
000
ASUS43 KIND 262309
RWRIN

WEATHER ROUNDUP FOR INDIANA
NATIONAL WEATHER SERVICE INDIANAPOLIS IN
600 PM EST THU FEB 26 2015

NOTE: "FAIR" INDICATES FEW OR NO CLOUDS BELOW 12,000 FEET WITH NO
SIGNIFICANT WEATHER AND/OR OBSTRUCTIONS TO VISIBILITY.

* - STATION DOES NOT REPORT WEATHER SUCH AS PRECIPITATION OR FOG.

+ - STATION NOT QUALITY CONTROLLED BY THE NATIONAL WEATHER SERVICE.
    USE DATA WITH CAUTION...ESPECIALLY DEWPOINT AND RELATIVE
    HUMIDITY OBSERVATIONS.

INZ001>003-010>013-019-020-270000-
NORTHWEST INDIANA

CITY           SKY/WX    TMP DP  RH WIND       PRES   REMARKS
GARY /AIRPORT/ MOCLDY    19   5  53 N20       30.30R WCI   4
KNOX *+          N/A     14  -6  41 N10       30.26R WCI   1
LA PORTE +     LGT SNOW  16   9  74 N12       30.27R WCI   3
MICHIGAN CITY+ LGT SNOW  16   5  62 N12       30.28R WCI   3
MONTICELLO +   CLOUDY    16   4  60 N9        30.27R WCI   4
RENSSELAER +   CLEAR     18  10  73 N6        30.28R WCI   9
VALPARAISO     CLOUDY    15   6  67 N8        30.27R WCI   4

$$

LMZ046-743>745-270000-
SOUTHERN LAKE MICHIGAN

STATION/POSITION TIME  TEMP WIND        PRES
                       AIR  DIR/SP/G
                 (UTC) (F)  (DEG/KT/KT) (MB)
MICHIGAN CITY    2300   16  350/ 16/ 19   N/A

$$

INZ004-005-014>016-021>024-270000-
NORTH CENTRAL INDIANA

CITY           SKY/WX    TMP DP  RH WIND       PRES   REMARKS
ELKHART        MOCLDY    16  -6  38 NW7       30.25R WCI   6
GOSHEN         CLOUDY    15   0  51 NW13      30.23R WCI   1
LOGANSPORT +   CLOUDY    16   3  57 N9        30.26R WCI   4
PERU/GRISSOM   FLURRIES  16  10  79 N12       30.23R WCI   3
ROCHESTER +    MOCLDY    18   3  53 NW15      30.25R WCI   3
SOUTH BEND     PTCLDY    13   1  59 N16       30.26R WCI  -3
WARSAW +       MOCLDY    16   1  53 NW7       30.23R WCI   6

$$

INZ006>009-017-018-025>027-270000-
NORTHEAST INDIANA

CITY           SKY/WX    TMP DP  RH WIND       PRES   REMARKS
ANGOLA *+      PTCLDY    12   1  62 N5        30.20R WCI   4
AUBURN +       CLOUDY    18   7  62 N8        30.22R WCI   7
FORT WAYNE     CLOUDY    16   6  65 N10       30.22R WCI   4
HUNTINGTON +   CLOUDY    16   5  63 N3        30.22R

$$

INZ028-029-035-036-043>045-051>053-270000-
WEST CENTRAL INDIANA

CITY           SKY/WX    TMP DP  RH WIND       PRES   REMARKS
CRAWFORDSVL +  CLOUDY    15   6  67 NW12      30.26R WCI   2
GREENCASTLE +  LGT SNOW  19  12  73 N7        30.25R VSB 1   WCI  10
LAFAYETTE      CLOUDY    16   3  56 N10       30.28R WCI   4
TERRE HAUTE    CLOUDY    20  12  71 N10       30.27R WCI   9

$$

INZ030>032-037>040-046>048-054>057-064-065-270000-
CENTRAL INDIANA

CITY           SKY/WX    TMP DP  RH WIND       PRES   REMARKS
CP ATTERBURY + CLOUDY    21  10  63 N13       30.24R WCI   9
COLUMBUS       CLOUDY    18   9  68 N13       30.23R WCI   4
FRANKFORT +    LGT SNOW  17  12  79 NW13      30.26R WCI   4
GREENWOOD *+   CLOUDY    18   5  57 N9        30.23R WCI   6
INDIANAPOLIS   MOCLDY    19   6  57 N14       30.23R WCI   6
-EAGLE CREEK   MOCLDY    18   7  62 N9        30.23R WCI   7
KOKOMO *+      MOCLDY    18  10  73 NW10      30.23R WCI   6
MARION +       CLOUDY    16   9  73 N9        30.23R WCI   5
MT COMFORT *+  PTCLDY    18   0  45 N14       30.22R WCI   4
SHELBYVILLE    CLOUDY    18   8  65 N13       30.22R WCI   5
ZIONSVILLE +   MOCLDY    18   9  68 N9        30.23R WCI   6

$$

INZ033-034-041-042-049-050-058-059-270000-
EAST CENTRAL INDIANA

CITY           SKY/WX    TMP DP  RH WIND       PRES   REMARKS
MUNCIE         LGT SNOW  16   7  67 N7        30.21R WCI   6

$$

INZ060-061-067>069-081>083-085>088-270000-
SOUTHWEST INDIANA

CITY           SKY/WX    TMP DP  RH WIND       PRES   REMARKS
EVANSVILLE     CLOUDY    27  16  63 N13G18    30.26R WCI  16
HUNTINGBURG *+ PTCLDY    25  12  58 N16G22    30.23R WCI  12
WASHINGTON +   LGT SNOW  23  13  64 N13       30.25R WCI  12

$$

INZ062-063-066-070>080-084-089>092-270000-
SOUTH CENTRAL AND SOUTHEAST INDIANA

CITY           SKY/WX    TMP DP  RH WIND       PRES   REMARKS
BLOOMINGTON    CLOUDY    20  10  65 N9        30.23R WCI   9
NORTH VERNON + CLOUDY    19   9  63 N10       30.21R WCI   8
SEYMOUR +      CLOUDY    21  10  63 N13       30.23R WCI   9

$$




USA.gov is the U.S. government's official web portal to all federal, state and local government web resources and services.